User: anonymous   Login
Location: Hertford
(51.8000°N, 0.0667°W)
Time: 07:46:53
(UTC+00:00)
Language:

MOS 1-B Rocket - Orbit

View from above orbital plane
View from above orbital plane
View from above satellite
View from above satellite

Ground track
Ground track

The orbit data is extracted from the following two-line orbital elements,

1 20491U 90013D   20336.89231892 -.00000161  00000-0 -23502-3 0  9990
2 20491  99.0429 208.1742 0467717 225.4768 130.7230 13.03558548465396
Epoch (UTC): 01 December 2020 21:24:56
Eccentricity: 0.0467717
inclination: 99.0429°
perigee height: 891 km
apogee height: 1605 km
right ascension of ascending node: 208.1742°
argument of perigee: 225.4768°
revolutions per day: 13.03558548
mean anomaly at epoch: 130.7230°
orbit number at epoch: 46539

The dashed part of the orbit path shows where the satellite is in the earth's shadow,  

DLR